QPF
0.00 0.00 0.00 0.00 0.00 0.00 0.00 0.00 0.00 0.00 0.00 0.00 0.00 0.00 0.00 0.00 0.00 0.00 0.00 0.00 0.00 0.00 0.00 0.00 0.00 0.00 0.00 0.00 0.00 0.00 0.00 0.00 0.00 0.00 0.00 0.00 0.00 0.00 0.00 0.00 0.00 0.00 0.00 0.00 0.00 0.00 0.00 0.00 0.00 0.00 0.00 0.00 0.00 0.00 0.00 0.00 0.00 0.00 0.00 0.00 0.00 0.00 0.00 0.00 0.00 0.00 0.00 0.00 0.00
0.00 0.00 0.00 0.00 0.00 0.00 0.00 0.00 0.00 0.00 0.00 0.00 0.00 0.00 0.00 0.00 0.00 0.00 0.00 0.00 0.00 0.00 0.00 0.00 0.00 0.00 0.00 0.00 0.00 0.00 0.00 0.00 0.00 0.00 0.00 0.00 0.00 0.00 0.00 0.00 0.00 0.00 0.00 0.00 0.00 0.00 0.00 0.00 0.00 0.00 0.00 0.00 0.00 0.00 0.00 0.00 0.00 0.00 0.00 0.00 0.00 0.00 0.00 0.00 0.00 0.00 0.00 0.00 0.00
0.00 0.00 0.00 0.00 0.00 0.00 0.00 0.00 0.00 0.00 0.00 0.00 0.00 0.00 0.00 0.00 0.00 0.00 0.00 0.00 0.00 0.00 0.00 0.00 0.00 0.00 0.00 0.00 0.00 0.00 0.00 0.00 0.00 0.00 0.00 0.00 0.00 0.00 0.00 0.00 0.00 0.00 0.00 0.00 0.00 0.00 0.00 0.00 0.00 0.00 0.00 0.00 0.00 0.00 0.00 0.00 0.00 0.00 0.00 0.00 0.00 0.00 0.00 0.00 0.00 0.00 0.00 0.00 0.00
0.00 0.00 0.00 0.00 0.00 0.00 0.00 0.00 0.00 0.00 0.00 0.00 0.00 0.00 0.00 0.00 0.00 0.00 0.00 0.00 0.00 0.00 0.00 0.00 0.00 0.00 0.00 0.00 0.00 0.00 0.00 0.00 0.00 0.00 0.00 0.00 0.00 0.00 0.00 0.00 0.00 0.00 0.00 0.00 0.00 0.00 0.00 0.00 0.00 0.00 0.00 0.00 0.00 0.00 0.00 0.00 0.00 0.00 0.00 0.00 0.00 0.00 0.00 0.00 0.00 0.00 0.00 0.00 0.00
0.00 0.00 0.00 0.00 0.00 0.00 0.00 0.00 0.00 0.00 0.00 0.00 0.00 0.00 0.00 0.00 0.00 0.00 0.00 0.00 0.00 0.00 0.00 0.00 0.00 0.00 0.00 0.00 0.00 0.00 0.00 0.00 0.00 0.00 0.00 0.00 0.00 0.00 0.00 0.00 0.00 0.00 0.00 0.00 0.00 0.00 0.00 0.00 0.00 0.00 0.00 0.00 0.00 0.00 0.00 0.00 0.00 0.00 0.00 0.00 0.00 0.00 0.00 0.00 0.00 0.00 0.00 0.00 0.00
0.00 0.00 0.00 0.00 0.00 0.00 0.00 0.00 0.00 0.00 0.00 0.00 0.00 0.00 0.00 0.00 0.00 0.00 0.00 0.00 0.00 0.00 0.00 0.00 0.00 0.00 0.00 0.00 0.00 0.00 0.00 0.00 0.00 0.00 0.00 0.00 0.00 0.00 0.00 0.00 0.00 0.00 0.00 0.00 0.00 0.00 0.00 0.00 0.00 0.00 0.00 0.00 0.00 0.00 0.00 0.00 0.00 0.00 0.00 0.00 0.00 0.00 0.00 0.00 0.00 0.00 0.00 0.00 0.00
0.00 0.00 0.00 0.00 0.00 0.00 0.00 0.00 0.00 0.00 0.00 0.00 0.00 0.00 0.00 0.00 0.00 0.00 0.00 0.00 0.00 0.00 0.00 0.00 0.00 0.00 0.00 0.00 0.00 0.00 0.00 0.00 0.00 0.00 0.00 0.00 0.00 0.00 0.00 0.00 0.00 0.00 0.00 0.00 0.00 0.00 0.00 0.00 0.00 0.00 0.00 0.00 0.00 0.00 0.00 0.00 0.00 0.00 0.00 0.00 0.00 0.00 0.00 0.00 0.00 0.00 0.00 0.00 0.00
0.00 0.00 0.00 0.00 0.00 0.00 0.00 0.00 0.00 0.00 0.00 0.00 0.00 0.00 0.00 0.00 0.00 0.00 0.00 0.00 0.00 0.00 0.00 0.00 0.00 0.00 0.00 0.00 0.00 0.00 0.00 0.00 0.00 0.00 0.00 0.00 0.00 0.00 0.00 0.00 0.00 0.00 0.00 0.00 0.00 0.00 0.00 0.00 0.00 0.00 0.00 0.00 0.00 0.00 0.00 0.00 0.00 0.00 0.00 0.00 0.00 0.00 0.00 0.00 0.00 0.00 0.00 0.00 0.00
0.00 0.00 0.00 0.00 0.00 0.00 0.00 0.00 0.00 0.00 0.00 0.00 0.00 0.00 0.00 0.00 0.00 0.00 0.00 0.00 0.00 0.00 0.00 0.00 0.00 0.00 0.00 0.00 0.00 0.00 0.00 0.00 0.00 0.00 0.00 0.00 0.00 0.00 0.00 0.00 0.00 0.00 0.00 0.00 0.00 0.00 0.00 0.00 0.00 0.00 0.00 0.00 0.00 0.00 0.00 0.00 0.00 0.00 0.00 0.00 0.00 0.00 0.00 0.00 0.00 0.00 0.00 0.00 0.00
0.00 0.00 0.00 0.00 0.00 0.00 0.00 0.00 0.00 0.00 0.00 0.00 0.00 0.00 0.00 0.00 0.00 0.00 0.00 0.00 0.00 0.00 0.00 0.00 0.00 0.00 0.00 0.00 0.00 0.00 0.00 0.00 0.00 0.00 0.00 0.00 0.00 0.00 0.00 0.00 0.00 0.00 0.00 0.00 0.00 0.00 0.00 0.00 0.00 0.00 0.00 0.00 0.00 0.00 0.00 0.00 0.00 0.00 0.00 0.00 0.00 0.00 0.00 0.00 0.00 0.00 0.00 0.00 0.00
0.00 0.00 0.00 0.00 0.00 0.00 0.00 0.00 0.00 0.00 0.00 0.00 0.00 0.00 0.00 0.00 0.00 0.00 0.00 0.00 0.00 0.00 0.00 0.00 0.00 0.00 0.00 0.00 0.00 0.00 0.00 0.00 0.00 0.00 0.00 0.00 0.00 0.00 0.00 0.00 0.00 0.00 0.00 0.00 0.00 0.00 0.00 0.00 0.00 0.00 0.00 0.00 0.00 0.00 0.00 0.00 0.00 0.00 0.00 0.00 0.00 0.00 0.00 0.00 0.00 0.00 0.00 0.00 0.00
0.00 0.00 0.00 0.00 0.00 0.00 0.00 0.00 0.00 0.00 0.00 0.00 0.00 0.00 0.00 0.00 0.00 0.00 0.00 0.00 0.00 0.00 0.00 0.00 0.00 0.00 0.00 0.00 0.00 0.00 0.00 0.00 0.00 0.00 0.00 0.00 0.00 0.00 0.00 0.00 0.00 0.00 0.00 0.00 0.00 0.00 0.00 0.00 0.00 0.00 0.00 0.00 0.00 0.00 0.00 0.00 0.00 0.00 0.00 0.00 0.00 0.00 0.00 0.00 0.00 0.00 0.00 0.00 0.00
0.00 0.00 0.00 0.00 0.00 0.00 0.00 0.00 0.00 0.00 0.00 0.00 0.00 0.00 0.00 0.00 0.00 0.00 0.00 0.00 0.00 0.00 0.00 0.00 0.00 0.00 0.00 0.00 0.00 0.00 0.00 0.00 0.00 0.00 0.00 0.00 0.00 0.00 0.00 0.00 0.00 0.00 0.00 0.00 0.00 0.00 0.00 0.00 0.00 0.00 0.00 0.00 0.00 0.00 0.00 0.00 0.00 0.00 0.00 0.00 0.00 0.00 0.00 0.00 0.00 0.00 0.00 0.00 0.00
0.00 0.00 0.00 0.00 0.00 0.00 0.00 0.00 0.00 0.00 0.00 0.00 0.00 0.00 0.00 0.00 0.00 0.00 0.00 0.00 0.00 0.00 0.00 0.00 0.00 0.00 0.00 0.00 0.00 0.00 0.00 0.00 0.00 0.00 0.00 0.00 0.00 0.00 0.00 0.00 0.00 0.00 0.00 0.00 0.00 0.00 0.00 0.00 0.00 0.00 0.00 0.00 0.00 0.00 0.00 0.00 0.00 0.00 0.00 0.00 0.00 0.00 0.00 0.00 0.00 0.00 0.00 0.00 0.00
0.00 0.00 0.00 0.00 0.00 0.00 0.00 0.00 0.00 0.00 0.00 0.00 0.00 0.00 0.00 0.00 0.00 0.00 0.00 0.00 0.00 0.00 0.00 0.00 0.00 0.00 0.00 0.00 0.00 0.00 0.00 0.00 0.00 0.00 0.00 0.00 0.00 0.00 0.00 0.00 0.00 0.00 0.00 0.00 0.00 0.00 0.00 0.00 0.00 0.00 0.00 0.00 0.00 0.00 0.00 0.00 0.00 0.00 0.00 0.00 0.00 0.00 0.00 0.00 0.00 0.00 0.00 0.00 0.00
0.00 0.00 0.00 0.00 0.00 0.00 0.00 0.00 0.00 0.00 0.00 0.00 0.00 0.00 0.00 0.00 0.00 0.00 0.00 0.00 0.00 0.00 0.00 0.00 0.00 0.00 0.00 0.00 0.00 0.00 0.00 0.00 0.00 0.00 0.00 0.00 0.00 0.00 0.00 0.00 0.00 0.00 0.00 0.00 0.00 0.00 0.00 0.00 0.00 0.00 0.00 0.00 0.00 0.00 0.00 0.00 0.00 0.00 0.00 0.00 0.00 0.00 0.00 0.00 0.00 0.00 0.00 0.00 0.00
0.00 0.00 0.00 0.00 0.00 0.00 0.00 0.00 0.00 0.00 0.00 0.00 0.00 0.00 0.00 0.00 0.00 0.00 0.00 0.00 0.00 0.00 0.00 0.00 0.00 0.00 0.00 0.00 0.00 0.00 0.00 0.00 0.00 0.00 0.00 0.00 0.00 0.00 0.00 0.00 0.00 0.00 0.00 0.00 0.00 0.00 0.00 0.00 0.00 0.00 0.00 0.00 0.00 0.00 0.00 0.00 0.00 0.00 0.00 0.00 0.00 0.00 0.00 0.00 0.00 0.00 0.00 0.00 0.00
0.00 0.00 0.00 0.00 0.00 0.00 0.00 0.00 0.00 0.00 0.00 0.00 0.00 0.00 0.00 0.00 0.00 0.00 0.00 0.00 0.00 0.00 0.00 0.00 0.00 0.00 0.00 0.00 0.00 0.00 0.00 0.00 0.00 0.00 0.00 0.00 0.00 0.00 0.00 0.00 0.00 0.00 0.00 0.00 0.00 0.00 0.00 0.00 0.00 0.00 0.00 0.00 0.00 0.00 0.00 0.00 0.00 0.00 0.00 0.00 0.00 0.00 0.00 0.00 0.00 0.00 0.00 0.00 0.00
0.00 0.00 0.00 0.00 0.00 0.00 0.00 0.00 0.00 0.00 0.00 0.00 0.00 0.00 0.00 0.00 0.00 0.00 0.00 0.00 0.00 0.00 0.00 0.00 0.00 0.00 0.00 0.00 0.00 0.00 0.00 0.00 0.00 0.00 0.00 0.00 0.00 0.00 0.00 0.00 0.00 0.00 0.00 0.00 0.00 0.00 0.00 0.00 0.00 0.00 0.00 0.00 0.00 0.00 0.00 0.00 0.00 0.00 0.00 0.00 0.00 0.00 0.00 0.00 0.00 0.00 0.00 0.00 0.00
0.00 0.00 0.00 0.00 0.00 0.00 0.00 0.00 0.00 0.00 0.00 0.00 0.00 0.00 0.00 0.00 0.00 0.00 0.00 0.00 0.00 0.00 0.00 0.00 0.00 0.00 0.00 0.00 0.00 0.00 0.00 0.00 0.00 0.00 0.00 0.00 0.00 0.00 0.00 0.00 0.00 0.00 0.00 0.00 0.00 0.00 0.00 0.00 0.00 0.00 0.00 0.00 0.00 0.00 0.00 0.00 0.00 0.00 0.00 0.00 0.00 0.00 0.00 0.00 0.00 0.00 0.00 0.00 0.00
0.00 0.00 0.00 0.00 0.00 0.00 0.00 0.00 0.00 0.00 0.00 0.00 0.00 0.00 0.00 0.00 0.00 0.00 0.00 0.00 0.00 0.00 0.00 0.00 0.00 0.00 0.00 0.00 0.00 0.00 0.00 0.00 0.00 0.00 0.00 0.00 0.00 0.00 0.00 0.00 0.00 0.00 0.00 0.00 0.00 0.00 0.00 0.00 0.00 0.00 0.00 0.00 0.00 0.00 0.00 0.00 0.00 0.00 0.00 0.00 0.00 0.00 0.00 0.00 0.00 0.00 0.00 0.00 0.00
0.00 0.00 0.00 0.00 0.00 0.00 0.00 0.00 0.00 0.00 0.00 0.00 0.00 0.00 0.00 0.00 0.00 0.00 0.00 0.00 0.00 0.00 0.00 0.00 0.00 0.00 0.00 0.00 0.00 0.00 0.00 0.00 0.00 0.00 0.00 0.00 0.00 0.00 0.00 0.00 0.00 0.00 0.00 0.00 0.00 0.00 0.00 0.00 0.00 0.00 0.00 0.00 0.00 0.00 0.00 0.00 0.00 0.00 0.00 0.00 0.00 0.00 0.00 0.00 0.00 0.00 0.00 0.00 0.00
0.00 0.00 0.00 0.00 0.00 0.00 0.00 0.00 0.00 0.00 0.00 0.00 0.00 0.00 0.00 0.00 0.00 0.00 0.00 0.00 0.00 0.00 0.00 0.00 0.00 0.00 0.00 0.00 0.00 0.00 0.00 0.00 0.00 0.00 0.00 0.00 0.00 0.00 0.00 0.00 0.00 0.00 0.00 0.00 0.00 0.00 0.00 0.00 0.00 0.00 0.00 0.00 0.00 0.00 0.00 0.00 0.00 0.00 0.00 0.00 0.00 0.00 0.00 0.00 0.00 0.00 0.00 0.00 0.00
0.00 0.00 0.00 0.00 0.00 0.00 0.00 0.00 0.00 0.00 0.00 0.00 0.00 0.00 0.00 0.00 0.00 0.00 0.00 0.00 0.00 0.00 0.00 0.00 0.00 0.00 0.00 0.00 0.00 0.00 0.00 0.00 0.00 0.00 0.00 0.00 0.00 0.00 0.00 0.00 0.00 0.00 0.00 0.00 0.00 0.00 0.00 0.00 0.00 0.00 0.00 0.00 0.00 0.00 0.00 0.00 0.00 0.00 0.00 0.00 0.00 0.00 0.00 0.00 0.00 0.00 0.00 0.00 0.00
0.00 0.00 0.00 0.00 0.00 0.00 0.00 0.00 0.00 0.00 0.00 0.00 0.00 0.00 0.00 0.00 0.00 0.00 0.00 0.00 0.00 0.00 0.00 0.00 0.00 0.00 0.00 0.00 0.00 0.00 0.00 0.00 0.00 0.00 0.00 0.00 0.00 0.00 0.00 0.00 0.00 0.00 0.00 0.00 0.00 0.00 0.00 0.00 0.00 0.00 0.00 0.00 0.00 0.00 0.00 0.00 0.00 0.00 0.00 0.00 0.00 0.00 0.00 0.00 0.00 0.00 0.00 0.00 0.00
0.00 0.00 0.00 0.00 0.00 0.00 0.00 0.00 0.00 0.00 0.00 0.00 0.00 0.00 0.00 0.00 0.00 0.00 0.00 0.00 0.00 0.00 0.00 0.00 0.00 0.00 0.00 0.00 0.00 0.00 0.00 0.00 0.00 0.00 0.00 0.00 0.00 0.00 0.00 0.00 0.00 0.00 0.00 0.00 0.00 0.00 0.00 0.00 0.00 0.00 0.00 0.00 0.00 0.00 0.00 0.00 0.00 0.00 0.00 0.00 0.00 0.00 0.00 0.00 0.00 0.00 0.00 0.00 0.00
0.00 0.00 0.00 0.00 0.00 0.00 0.00 0.00 0.00 0.00 0.00 0.00 0.00 0.00 0.00 0.00 0.00 0.00 0.00 0.00 0.00 0.00 0.00 0.00 0.00 0.00 0.00 0.00 0.00 0.00 0.00 0.00 0.00 0.00 0.00 0.00 0.00 0.00 0.00 0.00 0.00 0.00 0.00 0.00 0.00 0.00 0.00 0.00 0.00 0.00 0.00 0.00 0.00 0.00 0.00 0.00 0.00 0.00 0.00 0.00 0.00 0.00 0.00 0.00 0.00 0.00 0.00 0.00 0.00
0.00 0.00 0.00 0.00 0.00 0.00 0.00 0.00 0.00 0.00 0.00 0.00 0.00 0.00 0.00 0.00 0.00 0.00 0.00 0.00 0.00 0.00 0.00 0.00 0.00 0.00 0.00 0.00 0.00 0.00 0.00 0.00 0.00 0.00 0.00 0.00 0.00 0.00 0.00 0.00 0.00 0.00 0.00 0.00 0.00 0.00 0.00 0.00 0.00 0.00 0.00 0.00 0.00 0.00 0.00 0.00 0.00 0.00 0.00 0.00 0.00 0.00 0.00 0.00 0.00 0.00 0.00 0.00 0.00
0.00 0.00 0.00 0.00 0.00 0.00 0.00 0.00 0.00 0.00 0.00 0.00 0.00 0.00 0.00 0.00 0.00 0.00 0.00 0.00 0.00 0.00 0.00 0.00 0.00 0.00 0.00 0.00 0.00 0.00 0.00 0.00 0.00 0.00 0.00 0.00 0.00 0.00 0.00 0.00 0.00 0.00 0.00 0.00 0.00 0.00 0.00 0.00 0.00 0.00 0.00 0.00 0.00 0.00 0.00 0.00 0.00 0.00 0.00 0.00 0.00 0.00 0.00 0.00 0.00 -0.00 -0.00 0.00 0.00
0.00 0.00 0.00 0.00 0.00 0.00 0.00 0.00 0.00 0.00 0.00 0.00 0.00 0.00 0.00 0.00 0.00 0.00 0.00 0.00 0.00 0.00 0.00 0.00 0.00 0.00 0.00 0.00 0.00 0.00 0.00 0.00 0.00 0.00 0.00 0.00 0.00 0.00 0.00 0.00 0.00 0.00 0.00 0.00 0.00 0.00 0.00 0.00 0.00 0.00 0.00 0.00 0.00 0.00 0.00 0.00 0.00 0.00 0.00 0.00 0.00 0.00 0.00 0.00 0.00 0.00 0.00 0.00 0.00
0.00 0.00 0.00 0.00 0.00 0.00 0.00 0.00 0.00 0.00 0.00 0.00 0.00 0.00 0.00 0.00 0.00 0.00 0.00 0.00 0.00 0.00 0.00 0.00 0.00 0.00 0.00 0.00 0.00 0.00 0.00 0.00 0.00 0.00 0.00 0.00 0.00 0.00 0.00 0.00 0.00 0.00 0.00 0.00 0.00 0.00 0.00 0.00 0.00 0.00 0.00 0.00 0.00 0.00 0.00 0.00 0.00 0.00 0.00 0.00 0.00 0.00 0.00 0.00 0.00 0.00 0.00 0.00 0.00
0.00 0.00 0.00 0.00 0.00 0.00 0.00 0.00 0.00 0.00 0.00 0.00 0.00 0.00 0.00 0.00 0.00 0.00 0.00 0.00 0.00 0.00 0.00 0.00 0.00 0.00 0.00 0.00 0.00 0.00 0.00 0.00 0.00 0.00 0.00 0.00 0.00 0.00 0.00 0.00 0.00 0.00 0.00 0.00 0.00 0.00 0.00 0.00 0.00 0.00 0.00 0.00 0.00 0.00 0.00 0.00 0.00 0.00 0.00 0.00 0.00 0.00 0.00 0.00 0.00 0.00 0.00 0.00 0.00
0.00 0.00 0.00 0.00 0.00 0.00 0.00 0.00 0.00 0.00 0.00 0.00 0.00 0.00 0.00 0.00 0.00 0.00 0.00 0.00 0.00 0.00 0.00 0.00 0.00 0.00 0.00 0.00 0.00 0.00 0.00 0.00 0.00 0.00 0.00 0.00 0.00 0.00 0.00 0.00 0.00 0.00 0.00 0.00 0.00 0.00 0.00 0.00 0.00 0.00 0.00 0.00 0.00 0.00 0.00 0.00 0.00 0.00 0.00 0.00 0.00 0.00 0.00 -0.00 0.00 0.00 0.00 0.00 0.00
0.00 0.00 0.00 0.00 0.00 0.00 0.00 0.00 0.00 0.00 0.00 0.00 0.00 0.00 0.00 0.00 0.00 0.00 0.00 0.00 0.00 0.00 0.00 0.00 0.00 0.00 0.00 0.00 0.00 0.00 0.00 0.00 0.00 0.00 0.00 0.00 0.00 0.00 0.00 0.00 0.00 0.00 0.00 0.00 0.00 0.00 0.00 0.00 0.00 0.00 0.00 0.00 0.00 0.00 0.00 0.00 0.00 0.00 0.00 0.00 0.00 0.00 0.00 0.00 0.00 0.00 0.00 0.00 0.00
0.00 0.00 0.00 0.00 0.00 0.00 0.00 0.00 0.00 0.00 0.00 0.00 0.00 0.00 0.00 0.00 0.00 0.00 0.00 0.00 0.00 0.00 0.00 0.00 0.00 0.00 0.00 0.00 0.00 0.00 0.00 0.00 0.00 0.00 0.00 0.00 0.00 0.00 0.00 0.00 0.00 0.00 0.00 0.00 0.00 0.00 0.00 0.00 0.00 0.00 0.00 0.00 0.00 0.00 0.00 0.00 0.00 0.00 0.00 0.00 0.00 0.00 0.00 0.00 0.00 0.00 0.00 0.00 0.00
0.00 0.00 0.00 0.00 0.00 0.00 0.00 0.00 0.00 0.00 0.00 0.00 0.00 0.00 0.00 0.00 0.00 0.00 0.00 0.00 0.00 0.00 0.00 0.00 0.00 0.00 0.00 0.00 0.00 0.00 0.00 0.00 0.00 0.00 0.00 0.00 0.00 0.00 0.00 0.00 0.00 0.00 0.00 0.00 0.00 0.00 0.00 0.00 0.00 0.00 0.00 0.00 0.00 0.00 0.00 0.00 0.00 0.00 0.00 0.00 0.00 0.00 -0.00 -0.00 0.00 0.00 0.00 0.00 0.00
0.00 0.00 0.00 0.00 0.00 0.00 0.00 0.00 0.00 0.00 0.00 0.00 0.00 0.00 0.00 0.00 0.00 0.00 0.00 0.00 0.00 0.00 0.00 0.00 0.00 0.00 0.00 0.00 0.00 0.00 0.00 0.00 0.00 0.00 0.00 0.00 0.00 0.00 0.00 0.00 0.00 0.00 0.00 0.00 0.00 0.00 0.00 0.00 0.00 0.00 0.00 0.00 0.00 0.00 0.00 0.00 0.00 0.00 0.00 0.00 0.00 0.00 -0.00 -0.00 0.00 0.00 0.00 -0.00 -0.00
0.00 0.00 0.00 0.00 0.00 0.00 0.00 0.00 0.00 0.00 0.00 0.00 0.00 0.00 0.00 0.00 0.00 0.00 0.00 0.00 0.00 0.00 0.00 0.00 0.00 0.00 0.00 0.00 0.00 0.00 0.00 0.00 0.00 0.00 0.00 0.00 0.00 0.00 0.00 0.00 0.00 0.00 0.00 0.00 0.00 0.00 0.00 0.00 0.00 0.00 0.00 0.00 0.00 0.00 -0.00 -0.00 0.00 -0.00 0.00 0.00 0.00 0.00 0.00 -0.00 0.00 0.00 0.00 0.00 -0.00
0.00 0.00 0.00 0.00 0.00 0.00 0.00 0.00 0.00 0.00 0.00 0.00 0.00 0.00 0.00 0.00 0.00 0.00 0.00 0.00 0.00 0.00 0.00 0.00 0.00 0.00 0.00 0.00 0.00 0.00 0.00 0.00 0.00 0.00 0.00 0.00 0.00 0.00 0.00 0.00 0.00 0.00 0.00 0.00 0.00 0.00 0.00 0.00 0.00 0.00 0.00 0.00 0.00 0.00 0.00 -0.00 0.00 0.00 0.00 -0.00 0.00 0.00 0.00 0.00 0.00 0.00 0.00 0.00 0.00
0.00 0.00 0.00 0.00 0.00 0.00 0.00 0.00 0.00 0.00 0.00 0.00 0.00 0.00 0.00 0.00 0.00 0.00 0.00 0.00 0.00 0.00 0.00 0.00 0.00 0.00 0.00 0.00 0.00 0.00 0.00 0.00 0.00 0.00 0.00 0.00 0.00 0.00 0.00 0.00 0.00 0.00 0.00 0.00 0.00 0.00 0.00 0.00 0.00 0.00 0.00 0.00 0.00 0.00 0.00 0.00 0.00 0.00 0.00 0.00 -0.00 0.00 0.00 0.00 0.00 0.00 0.00 0.00 0.00
0.00 0.00 0.00 0.00 0.00 0.00 0.00 0.00 0.00 0.00 0.00 0.00 0.00 0.00 0.00 0.00 0.00 0.00 0.00 0.00 0.00 0.00 0.00 0.00 0.00 0.00 0.00 0.00 0.00 0.00 0.00 0.00 0.00 0.00 0.00 0.00 0.00 0.00 0.00 0.00 0.00 0.00 0.00 0.00 0.00 0.00 0.00 0.00 0.00 0.00 0.00 0.00 0.00 -0.00 0.00 -0.00 0.00 0.00 0.00 0.00 -0.00 0.00 0.00 0.00 0.00 0.00 0.01 0.01 0.01
MSLP
1015.23 1015.35 1015.47 1015.59 1015.67 1015.79 1015.83 1015.91 1015.95 1015.99 1016.07 1016.15 1016.23 1016.27 1016.31 1016.39 1016.43 1016.47 1016.47 1016.55 1016.55 1016.55 1016.59 1016.59 1016.63 1016.67 1016.67 1016.63 1016.59 1016.55 1016.55 1016.51 1016.47 1016.39 1016.39 1016.35 1016.35 1016.31 1016.27 1016.23 1016.23 1016.23 1016.19 1016.19 1016.15 1016.15 1016.11 1016.11 1016.11 1016.03 1015.99 1015.95 1015.87 1015.83 1015.71 1015.59 1015.51 1015.43 1015.35 1015.23 1015.19 1015.11 1015.03 1014.99 1014.91 1014.79 1014.67 1014.55 1014.43
1015.43 1015.51 1015.59 1015.67 1015.75 1015.83 1015.91 1015.99 1016.07 1016.11 1016.19 1016.23 1016.31 1016.39 1016.43 1016.47 1016.55 1016.55 1016.55 1016.59 1016.59 1016.63 1016.63 1016.67 1016.71 1016.75 1016.75 1016.67 1016.67 1016.63 1016.59 1016.55 1016.55 1016.51 1016.47 1016.39 1016.39 1016.35 1016.31 1016.27 1016.27 1016.23 1016.23 1016.23 1016.23 1016.19 1016.15 1016.11 1016.11 1016.11 1016.03 1015.95 1015.87 1015.83 1015.71 1015.59 1015.51 1015.43 1015.35 1015.27 1015.19 1015.11 1015.03 1014.99 1014.87 1014.75 1014.63 1014.51 1014.35
1015.55 1015.67 1015.71 1015.79 1015.83 1015.95 1016.03 1016.11 1016.23 1016.31 1016.35 1016.39 1016.39 1016.43 1016.51 1016.55 1016.59 1016.63 1016.67 1016.67 1016.67 1016.67 1016.71 1016.75 1016.83 1016.83 1016.79 1016.79 1016.75 1016.67 1016.67 1016.63 1016.59 1016.55 1016.55 1016.51 1016.43 1016.39 1016.39 1016.35 1016.35 1016.27 1016.23 1016.23 1016.23 1016.23 1016.19 1016.19 1016.11 1016.07 1015.99 1015.95 1015.87 1015.83 1015.67 1015.59 1015.51 1015.43 1015.35 1015.27 1015.15 1015.11 1015.03 1014.95 1014.83 1014.67 1014.55 1014.43 1014.31
1015.75 1015.83 1015.87 1015.95 1016.03 1016.11 1016.19 1016.23 1016.31 1016.39 1016.43 1016.43 1016.51 1016.55 1016.59 1016.59 1016.63 1016.67 1016.67 1016.71 1016.71 1016.79 1016.83 1016.87 1016.91 1016.87 1016.83 1016.83 1016.83 1016.79 1016.75 1016.67 1016.67 1016.63 1016.59 1016.55 1016.51 1016.43 1016.39 1016.39 1016.39 1016.35 1016.31 1016.27 1016.27 1016.23 1016.19 1016.19 1016.11 1016.07 1015.99 1015.95 1015.91 1015.83 1015.67 1015.59 1015.51 1015.43 1015.35 1015.23 1015.15 1015.11 1015.03 1014.91 1014.79 1014.67 1014.55 1014.39 1014.27
1015.91 1015.95 1016.03 1016.11 1016.19 1016.23 1016.27 1016.35 1016.39 1016.39 1016.43 1016.55 1016.55 1016.63 1016.67 1016.67 1016.71 1016.75 1016.79 1016.83 1016.83 1016.87 1016.91 1016.95 1016.95 1016.95 1016.95 1016.95 1016.91 1016.87 1016.83 1016.79 1016.71 1016.71 1016.67 1016.67 1016.59 1016.55 1016.47 1016.43 1016.39 1016.39 1016.31 1016.31 1016.27 1016.23 1016.19 1016.19 1016.11 1016.07 1015.99 1015.95 1015.87 1015.79 1015.67 1015.59 1015.51 1015.43 1015.31 1015.23 1015.11 1015.07 1014.99 1014.87 1014.75 1014.63 1014.47 1014.39 1014.23
1016.11 1016.15 1016.19 1016.23 1016.27 1016.35 1016.39 1016.43 1016.51 1016.55 1016.59 1016.63 1016.67 1016.79 1016.83 1016.83 1016.83 1016.83 1016.87 1016.95 1016.95 1016.95 1016.99 1016.99 1016.99 1016.99 1016.99 1016.99 1016.95 1016.95 1016.91 1016.87 1016.79 1016.79 1016.75 1016.71 1016.63 1016.59 1016.55 1016.51 1016.43 1016.39 1016.35 1016.35 1016.27 1016.23 1016.19 1016.15 1016.11 1016.03 1015.95 1015.91 1015.83 1015.75 1015.67 1015.59 1015.51 1015.43 1015.31 1015.23 1015.11 1015.07 1014.95 1014.83 1014.71 1014.59 1014.43 1014.31 1014.19
1016.23 1016.27 1016.31 1016.39 1016.39 1016.47 1016.51 1016.55 1016.55 1016.63 1016.67 1016.75 1016.83 1016.87 1016.95 1016.95 1016.95 1016.95 1016.99 1017.03 1017.07 1017.07 1017.11 1017.07 1017.07 1017.11 1017.11 1017.11 1017.07 1017.03 1016.95 1016.95 1016.87 1016.83 1016.79 1016.79 1016.67 1016.67 1016.59 1016.55 1016.43 1016.39 1016.39 1016.31 1016.23 1016.23 1016.15 1016.11 1016.07 1015.99 1015.95 1015.87 1015.79 1015.67 1015.63 1015.59 1015.51 1015.39 1015.31 1015.19 1015.07 1014.95 1014.87 1014.79 1014.67 1014.55 1014.39 1014.23 1014.11
1016.27 1016.35 1016.39 1016.47 1016.51 1016.55 1016.59 1016.63 1016.67 1016.71 1016.79 1016.83 1016.91 1016.95 1016.99 1017.03 1017.07 1017.11 1017.11 1017.15 1017.19 1017.19 1017.19 1017.15 1017.19 1017.19 1017.19 1017.15 1017.11 1017.11 1017.03 1016.99 1016.95 1016.91 1016.83 1016.83 1016.71 1016.67 1016.59 1016.55 1016.47 1016.39 1016.35 1016.27 1016.23 1016.23 1016.15 1016.11 1016.03 1015.95 1015.91 1015.83 1015.75 1015.67 1015.55 1015.51 1015.47 1015.39 1015.27 1015.11 1014.99 1014.91 1014.83 1014.71 1014.59 1014.47 1014.35 1014.15 1013.95
1016.35 1016.43 1016.51 1016.55 1016.55 1016.63 1016.67 1016.67 1016.75 1016.83 1016.87 1016.95 1016.99 1017.03 1017.07 1017.11 1017.11 1017.19 1017.23 1017.27 1017.23 1017.23 1017.23 1017.23 1017.23 1017.23 1017.23 1017.23 1017.19 1017.11 1017.07 1017.03 1016.95 1016.91 1016.87 1016.83 1016.71 1016.67 1016.63 1016.55 1016.47 1016.39 1016.31 1016.23 1016.23 1016.19 1016.11 1016.03 1015.95 1015.95 1015.91 1015.83 1015.71 1015.63 1015.55 1015.47 1015.39 1015.31 1015.23 1015.07 1014.91 1014.79 1014.67 1014.63 1014.55 1014.39 1014.23 1014.07 1013.87
1016.47 1016.55 1016.55 1016.59 1016.63 1016.67 1016.71 1016.79 1016.83 1016.87 1016.95 1017.03 1017.11 1017.11 1017.11 1017.11 1017.19 1017.23 1017.31 1017.35 1017.27 1017.27 1017.27 1017.31 1017.31 1017.27 1017.27 1017.23 1017.23 1017.15 1017.11 1017.07 1016.99 1016.95 1016.87 1016.83 1016.75 1016.67 1016.63 1016.55 1016.47 1016.39 1016.31 1016.23 1016.15 1016.11 1016.11 1015.99 1015.95 1015.87 1015.83 1015.79 1015.67 1015.59 1015.47 1015.39 1015.31 1015.23 1015.11 1014.95 1014.83 1014.71 1014.59 1014.51 1014.39 1014.27 1014.11 1013.95 1013.71
1016.55 1016.63 1016.63 1016.67 1016.67 1016.67 1016.75 1016.83 1016.91 1016.95 1017.03 1017.11 1017.19 1017.23 1017.23 1017.23 1017.27 1017.31 1017.35 1017.35 1017.39 1017.39 1017.39 1017.39 1017.35 1017.35 1017.31 1017.27 1017.23 1017.19 1017.11 1017.07 1017.03 1016.95 1016.91 1016.83 1016.71 1016.67 1016.59 1016.51 1016.43 1016.39 1016.27 1016.23 1016.11 1016.07 1016.03 1015.95 1015.95 1015.83 1015.75 1015.67 1015.63 1015.51 1015.39 1015.31 1015.23 1015.11 1014.99 1014.87 1014.79 1014.67 1014.51 1014.39 1014.27 1014.11 1013.95 1013.79 1013.59
1016.63 1016.67 1016.67 1016.67 1016.71 1016.75 1016.83 1016.91 1016.95 1017.07 1017.11 1017.19 1017.27 1017.31 1017.35 1017.35 1017.39 1017.39 1017.43 1017.43 1017.51 1017.51 1017.47 1017.39 1017.39 1017.39 1017.35 1017.31 1017.23 1017.19 1017.11 1017.07 1016.99 1016.95 1016.87 1016.83 1016.71 1016.63 1016.55 1016.47 1016.39 1016.35 1016.23 1016.19 1016.11 1016.07 1016.03 1015.95 1015.87 1015.79 1015.67 1015.63 1015.55 1015.47 1015.35 1015.23 1015.15 1015.03 1014.91 1014.79 1014.67 1014.55 1014.43 1014.23 1014.11 1013.99 1013.83 1013.67 1013.43
1016.67 1016.71 1016.71 1016.79 1016.79 1016.83 1016.91 1016.99 1017.07 1017.11 1017.23 1017.27 1017.39 1017.39 1017.43 1017.47 1017.43 1017.47 1017.51 1017.55 1017.59 1017.59 1017.51 1017.47 1017.39 1017.39 1017.39 1017.35 1017.27 1017.23 1017.15 1017.11 1016.99 1016.95 1016.87 1016.79 1016.71 1016.63 1016.55 1016.47 1016.39 1016.27 1016.23 1016.15 1016.07 1016.03 1015.95 1015.87 1015.83 1015.75 1015.67 1015.51 1015.43 1015.39 1015.27 1015.19 1015.07 1014.95 1014.83 1014.67 1014.55 1014.43 1014.31 1014.15 1013.99 1013.83 1013.71 1013.51 1013.39
1016.75 1016.79 1016.83 1016.83 1016.87 1016.95 1016.99 1017.11 1017.15 1017.23 1017.35 1017.39 1017.47 1017.51 1017.51 1017.55 1017.55 1017.55 1017.59 1017.63 1017.67 1017.63 1017.59 1017.51 1017.47 1017.43 1017.39 1017.35 1017.27 1017.23 1017.15 1017.11 1016.99 1016.95 1016.83 1016.79 1016.67 1016.59 1016.55 1016.43 1016.35 1016.27 1016.19 1016.11 1016.03 1015.95 1015.91 1015.83 1015.79 1015.67 1015.59 1015.47 1015.39 1015.27 1015.19 1015.07 1014.95 1014.83 1014.75 1014.59 1014.47 1014.39 1014.23 1014.11 1013.95 1013.79 1013.59 1013.43 1013.23
1016.79 1016.83 1016.91 1016.95 1016.95 1017.07 1017.11 1017.23 1017.23 1017.35 1017.43 1017.51 1017.55 1017.59 1017.63 1017.63 1017.67 1017.67 1017.67 1017.67 1017.67 1017.67 1017.63 1017.63 1017.55 1017.47 1017.39 1017.35 1017.23 1017.19 1017.15 1017.07 1016.99 1016.91 1016.83 1016.75 1016.67 1016.55 1016.51 1016.39 1016.27 1016.23 1016.15 1016.07 1015.99 1015.95 1015.83 1015.83 1015.71 1015.63 1015.51 1015.43 1015.27 1015.15 1015.07 1014.95 1014.83 1014.75 1014.67 1014.55 1014.43 1014.31 1014.15 1013.99 1013.83 1013.71 1013.55 1013.39 1013.11
1016.83 1016.91 1016.95 1017.03 1017.11 1017.19 1017.23 1017.31 1017.39 1017.43 1017.51 1017.55 1017.63 1017.67 1017.67 1017.67 1017.71 1017.71 1017.71 1017.71 1017.71 1017.67 1017.67 1017.67 1017.59 1017.51 1017.39 1017.31 1017.23 1017.19 1017.11 1017.03 1016.95 1016.91 1016.83 1016.75 1016.63 1016.55 1016.47 1016.39 1016.27 1016.19 1016.11 1016.03 1015.95 1015.83 1015.79 1015.71 1015.67 1015.51 1015.43 1015.31 1015.19 1015.07 1014.95 1014.83 1014.71 1014.63 1014.55 1014.51 1014.39 1014.23 1014.11 1013.95 1013.83 1013.67 1013.47 1013.31 1013.11
1016.91 1016.99 1017.11 1017.15 1017.23 1017.31 1017.39 1017.39 1017.47 1017.55 1017.59 1017.67 1017.67 1017.71 1017.75 1017.79 1017.79 1017.79 1017.75 1017.75 1017.75 1017.71 1017.67 1017.67 1017.55 1017.51 1017.43 1017.31 1017.23 1017.19 1017.11 1017.03 1016.95 1016.87 1016.83 1016.71 1016.63 1016.55 1016.43 1016.35 1016.23 1016.15 1016.07 1015.95 1015.87 1015.79 1015.67 1015.63 1015.51 1015.43 1015.31 1015.19 1015.07 1014.95 1014.83 1014.75 1014.67 1014.55 1014.51 1014.39 1014.31 1014.23 1014.11 1013.95 1013.79 1013.63 1013.43 1013.27 1013.11
1016.99 1017.11 1017.19 1017.23 1017.35 1017.39 1017.47 1017.51 1017.55 1017.59 1017.67 1017.67 1017.75 1017.79 1017.79 1017.83 1017.83 1017.83 1017.83 1017.79 1017.75 1017.71 1017.67 1017.67 1017.55 1017.51 1017.43 1017.35 1017.27 1017.19 1017.11 1016.99 1016.95 1016.83 1016.79 1016.67 1016.59 1016.51 1016.39 1016.27 1016.19 1016.11 1015.99 1015.91 1015.83 1015.71 1015.59 1015.51 1015.39 1015.27 1015.19 1015.11 1014.95 1014.87 1014.79 1014.63 1014.55 1014.51 1014.39 1014.35 1014.23 1014.11 1014.03 1013.91 1013.75 1013.59 1013.43 1013.23 1013.03
1017.11 1017.23 1017.31 1017.39 1017.43 1017.51 1017.51 1017.55 1017.59 1017.63 1017.67 1017.71 1017.79 1017.83 1017.83 1017.83 1017.83 1017.83 1017.83 1017.83 1017.75 1017.71 1017.67 1017.67 1017.55 1017.47 1017.39 1017.31 1017.23 1017.15 1017.07 1016.95 1016.91 1016.83 1016.71 1016.63 1016.55 1016.39 1016.35 1016.23 1016.11 1015.99 1015.91 1015.83 1015.75 1015.67 1015.51 1015.39 1015.31 1015.19 1015.11 1014.95 1014.87 1014.79 1014.67 1014.59 1014.55 1014.39 1014.31 1014.23 1014.15 1014.03 1013.95 1013.83 1013.71 1013.55 1013.43 1013.23 1013.03
1017.23 1017.35 1017.43 1017.51 1017.51 1017.51 1017.55 1017.55 1017.63 1017.67 1017.67 1017.75 1017.83 1017.83 1017.87 1017.87 1017.87 1017.87 1017.83 1017.83 1017.75 1017.67 1017.67 1017.63 1017.55 1017.47 1017.39 1017.27 1017.23 1017.11 1017.03 1016.95 1016.83 1016.75 1016.67 1016.55 1016.47 1016.39 1016.23 1016.15 1016.07 1015.95 1015.87 1015.75 1015.67 1015.55 1015.43 1015.35 1015.23 1015.11 1014.99 1014.87 1014.79 1014.67 1014.55 1014.51 1014.39 1014.31 1014.23 1014.15 1014.07 1013.95 1013.83 1013.75 1013.67 1013.51 1013.39 1013.23 1013.03
1017.31 1017.43 1017.51 1017.51 1017.55 1017.59 1017.59 1017.59 1017.63 1017.67 1017.71 1017.79 1017.83 1017.87 1017.91 1017.91 1017.91 1017.87 1017.83 1017.83 1017.71 1017.67 1017.67 1017.59 1017.51 1017.47 1017.39 1017.27 1017.19 1017.11 1016.99 1016.87 1016.83 1016.71 1016.59 1016.51 1016.39 1016.31 1016.19 1016.11 1015.95 1015.87 1015.79 1015.67 1015.55 1015.47 1015.39 1015.23 1015.15 1014.99 1014.91 1014.83 1014.67 1014.59 1014.47 1014.39 1014.27 1014.19 1014.11 1014.03 1013.95 1013.83 1013.79 1013.67 1013.55 1013.43 1013.27 1013.11 1012.91
1017.39 1017.47 1017.51 1017.55 1017.59 1017.59 1017.59 1017.63 1017.67 1017.71 1017.79 1017.83 1017.87 1017.91 1017.95 1017.91 1017.91 1017.87 1017.83 1017.79 1017.71 1017.67 1017.59 1017.55 1017.51 1017.43 1017.35 1017.23 1017.15 1017.07 1016.95 1016.83 1016.75 1016.67 1016.55 1016.43 1016.31 1016.23 1016.11 1015.99 1015.91 1015.83 1015.71 1015.63 1015.51 1015.39 1015.27 1015.19 1015.07 1014.95 1014.83 1014.67 1014.55 1014.47 1014.39 1014.27 1014.15 1014.07 1013.95 1013.91 1013.83 1013.75 1013.67 1013.55 1013.47 1013.35 1013.19 1012.99 1012.83
1017.43 1017.51 1017.55 1017.55 1017.55 1017.55 1017.55 1017.59 1017.67 1017.75 1017.83 1017.91 1017.95 1017.95 1017.95 1017.95 1017.91 1017.87 1017.83 1017.79 1017.71 1017.63 1017.55 1017.51 1017.43 1017.39 1017.27 1017.19 1017.11 1016.95 1016.87 1016.75 1016.67 1016.55 1016.47 1016.39 1016.23 1016.15 1016.03 1015.95 1015.87 1015.79 1015.67 1015.55 1015.47 1015.39 1015.23 1015.07 1014.91 1014.83 1014.67 1014.55 1014.43 1014.31 1014.23 1014.15 1014.03 1013.95 1013.87 1013.79 1013.67 1013.59 1013.51 1013.43 1013.39 1013.23 1013.07 1012.87 1012.67
1017.47 1017.51 1017.55 1017.55 1017.51 1017.55 1017.59 1017.67 1017.75 1017.83 1017.91 1017.95 1017.99 1017.99 1017.95 1017.95 1017.91 1017.83 1017.79 1017.75 1017.67 1017.63 1017.51 1017.51 1017.39 1017.31 1017.23 1017.11 1017.03 1016.95 1016.83 1016.75 1016.63 1016.51 1016.39 1016.27 1016.23 1016.11 1015.99 1015.91 1015.83 1015.71 1015.63 1015.51 1015.43 1015.31 1015.15 1014.95 1014.75 1014.63 1014.51 1014.39 1014.27 1014.19 1014.11 1014.03 1013.95 1013.87 1013.83 1013.71 1013.59 1013.47 1013.39 1013.31 1013.23 1013.11 1012.95 1012.71 1012.55
1017.47 1017.51 1017.51 1017.51 1017.55 1017.59 1017.67 1017.75 1017.83 1017.95 1017.99 1018.03 1017.99 1017.99 1017.99 1017.95 1017.91 1017.83 1017.79 1017.71 1017.67 1017.59 1017.51 1017.47 1017.35 1017.23 1017.15 1017.07 1016.99 1016.87 1016.79 1016.71 1016.59 1016.47 1016.35 1016.23 1016.11 1016.03 1015.95 1015.83 1015.75 1015.67 1015.55 1015.43 1015.27 1015.11 1014.95 1014.83 1014.67 1014.51 1014.35 1014.19 1014.11 1014.07 1013.99 1013.91 1013.87 1013.83 1013.75 1013.67 1013.51 1013.39 1013.27 1013.15 1013.07 1012.95 1012.83 1012.67 1012.39
1017.47 1017.51 1017.51 1017.51 1017.59 1017.67 1017.71 1017.83 1017.95 1017.99 1018.03 1018.03 1018.03 1017.99 1017.95 1017.95 1017.83 1017.83 1017.79 1017.71 1017.67 1017.55 1017.51 1017.43 1017.35 1017.23 1017.11 1017.03 1016.95 1016.83 1016.75 1016.67 1016.55 1016.47 1016.35 1016.23 1016.11 1015.95 1015.87 1015.83 1015.67 1015.59 1015.51 1015.31 1015.11 1014.95 1014.79 1014.67 1014.55 1014.39 1014.27 1014.15 1014.03 1013.95 1013.87 1013.83 1013.79 1013.75 1013.67 1013.63 1013.51 1013.39 1013.23 1013.11 1012.91 1012.79 1012.67 1012.51 1012.27
1017.47 1017.51 1017.51 1017.55 1017.63 1017.67 1017.83 1017.87 1017.95 1017.99 1018.07 1018.07 1018.07 1018.03 1017.95 1017.91 1017.83 1017.83 1017.75 1017.71 1017.63 1017.55 1017.47 1017.39 1017.31 1017.19 1017.11 1016.99 1016.91 1016.83 1016.71 1016.63 1016.51 1016.39 1016.31 1016.19 1016.07 1015.95 1015.83 1015.71 1015.59 1015.51 1015.35 1015.19 1014.99 1014.83 1014.67 1014.55 1014.39 1014.23 1014.15 1014.11 1013.99 1013.91 1013.83 1013.75 1013.67 1013.67 1013.59 1013.55 1013.47 1013.35 1013.23 1013.11 1012.87 1012.67 1012.47 1012.27 1012.15
1017.47 1017.51 1017.51 1017.63 1017.67 1017.75 1017.83 1017.95 1017.99 1018.07 1018.11 1018.07 1018.03 1017.99 1017.95 1017.87 1017.83 1017.83 1017.75 1017.71 1017.63 1017.51 1017.47 1017.39 1017.23 1017.15 1017.07 1016.99 1016.91 1016.79 1016.67 1016.55 1016.47 1016.35 1016.23 1016.11 1015.99 1015.87 1015.75 1015.67 1015.51 1015.39 1015.23 1015.11 1014.91 1014.75 1014.59 1014.43 1014.27 1014.15 1014.07 1013.95 1013.91 1013.83 1013.79 1013.71 1013.63 1013.55 1013.51 1013.47 1013.39 1013.27 1013.15 1013.03 1012.83 1012.63 1012.39 1012.19 1011.99
1017.47 1017.51 1017.55 1017.67 1017.75 1017.83 1017.87 1017.95 1018.03 1018.07 1018.07 1018.07 1017.99 1017.95 1017.91 1017.87 1017.83 1017.83 1017.75 1017.67 1017.59 1017.51 1017.47 1017.35 1017.19 1017.11 1017.03 1016.99 1016.87 1016.75 1016.63 1016.55 1016.39 1016.23 1016.15 1016.07 1015.95 1015.83 1015.67 1015.59 1015.43 1015.31 1015.15 1014.99 1014.83 1014.67 1014.51 1014.35 1014.19 1014.03 1013.95 1013.87 1013.83 1013.79 1013.71 1013.67 1013.55 1013.51 1013.39 1013.39 1013.27 1013.23 1013.11 1012.95 1012.71 1012.55 1012.31 1012.11 1011.95
1017.47 1017.51 1017.63 1017.71 1017.83 1017.87 1017.95 1018.03 1018.03 1018.07 1018.03 1018.03 1017.95 1017.95 1017.91 1017.91 1017.83 1017.83 1017.75 1017.67 1017.59 1017.51 1017.39 1017.27 1017.19 1017.11 1017.03 1016.95 1016.83 1016.67 1016.55 1016.47 1016.35 1016.23 1016.11 1015.99 1015.87 1015.75 1015.59 1015.47 1015.39 1015.23 1015.07 1014.91 1014.71 1014.55 1014.39 1014.23 1014.07 1013.95 1013.83 1013.75 1013.71 1013.67 1013.63 1013.59 1013.51 1013.43 1013.35 1013.27 1013.23 1013.11 1012.95 1012.83 1012.63 1012.43 1012.23 1012.07 1011.83
1017.51 1017.59 1017.67 1017.83 1017.87 1017.95 1017.95 1018.03 1018.03 1018.03 1017.99 1017.99 1017.95 1017.95 1017.95 1017.95 1017.87 1017.83 1017.75 1017.67 1017.55 1017.39 1017.27 1017.23 1017.15 1017.11 1016.95 1016.83 1016.75 1016.67 1016.55 1016.39 1016.27 1016.15 1016.07 1015.95 1015.79 1015.67 1015.51 1015.39 1015.31 1015.15 1014.95 1014.79 1014.59 1014.39 1014.23 1014.11 1013.95 1013.83 1013.75 1013.67 1013.63 1013.55 1013.51 1013.43 1013.39 1013.31 1013.23 1013.15 1013.07 1012.95 1012.83 1012.67 1012.55 1012.35 1012.19 1012.03 1011.83
1017.59 1017.67 1017.79 1017.87 1017.95 1017.95 1017.99 1018.03 1018.03 1018.03 1017.99 1017.99 1017.95 1017.95 1017.95 1017.91 1017.83 1017.75 1017.67 1017.59 1017.51 1017.39 1017.27 1017.23 1017.11 1017.03 1016.91 1016.79 1016.67 1016.55 1016.43 1016.31 1016.23 1016.11 1015.95 1015.83 1015.71 1015.55 1015.43 1015.31 1015.23 1015.07 1014.87 1014.67 1014.47 1014.31 1014.15 1013.99 1013.87 1013.75 1013.67 1013.55 1013.51 1013.47 1013.39 1013.35 1013.27 1013.23 1013.11 1013.03 1012.95 1012.83 1012.71 1012.55 1012.43 1012.27 1012.15 1011.95 1011.83
1017.67 1017.79 1017.87 1017.95 1017.95 1017.99 1018.03 1018.03 1018.03 1018.03 1017.99 1017.99 1017.95 1017.95 1017.91 1017.83 1017.75 1017.67 1017.59 1017.51 1017.39 1017.35 1017.27 1017.19 1017.11 1016.95 1016.87 1016.75 1016.59 1016.47 1016.39 1016.23 1016.11 1015.95 1015.83 1015.71 1015.63 1015.51 1015.39 1015.23 1015.11 1014.95 1014.75 1014.55 1014.39 1014.23 1014.07 1013.91 1013.79 1013.67 1013.55 1013.43 1013.39 1013.31 1013.23 1013.23 1013.15 1013.07 1012.95 1012.87 1012.79 1012.67 1012.59 1012.51 1012.39 1012.23 1012.03 1011.87 1011.67
1017.75 1017.83 1017.95 1017.99 1018.03 1018.03 1018.07 1018.07 1018.03 1018.03 1018.03 1018.03 1017.95 1017.91 1017.83 1017.79 1017.75 1017.67 1017.55 1017.47 1017.39 1017.31 1017.23 1017.11 1017.03 1016.91 1016.79 1016.71 1016.55 1016.39 1016.27 1016.11 1015.99 1015.91 1015.79 1015.67 1015.51 1015.39 1015.23 1015.11 1014.95 1014.79 1014.63 1014.43 1014.27 1014.11 1013.95 1013.83 1013.67 1013.55 1013.39 1013.31 1013.23 1013.23 1013.11 1013.07 1012.95 1012.87 1012.79 1012.71 1012.63 1012.55 1012.43 1012.35 1012.23 1012.07 1011.91 1011.71 1011.51
1017.83 1017.95 1017.95 1018.03 1018.07 1018.07 1018.07 1018.07 1018.07 1018.03 1018.03 1018.03 1017.95 1017.87 1017.83 1017.75 1017.71 1017.63 1017.51 1017.39 1017.31 1017.23 1017.15 1017.03 1016.95 1016.83 1016.71 1016.59 1016.51 1016.39 1016.23 1016.03 1015.91 1015.83 1015.67 1015.51 1015.39 1015.27 1015.11 1014.99 1014.83 1014.67 1014.51 1014.35 1014.19 1014.03 1013.87 1013.71 1013.55 1013.43 1013.31 1013.23 1013.15 1013.11 1013.03 1012.91 1012.83 1012.67 1012.63 1012.55 1012.47 1012.39 1012.27 1012.15 1012.07 1011.91 1011.71 1011.51 1011.35
1017.87 1017.95 1018.03 1018.07 1018.11 1018.11 1018.11 1018.11 1018.07 1018.03 1018.03 1017.99 1017.95 1017.87 1017.83 1017.71 1017.67 1017.55 1017.47 1017.35 1017.23 1017.19 1017.11 1016.95 1016.87 1016.79 1016.67 1016.55 1016.39 1016.31 1016.15 1015.99 1015.83 1015.71 1015.55 1015.43 1015.27 1015.11 1014.99 1014.83 1014.67 1014.55 1014.39 1014.23 1014.07 1013.91 1013.75 1013.63 1013.47 1013.31 1013.19 1013.07 1013.03 1012.95 1012.83 1012.75 1012.67 1012.55 1012.47 1012.39 1012.31 1012.23 1012.11 1011.99 1011.83 1011.67 1011.51 1011.35 1011.11
1017.87 1017.95 1018.03 1018.11 1018.11 1018.11 1018.11 1018.11 1018.07 1018.07 1018.03 1017.95 1017.95 1017.87 1017.79 1017.67 1017.59 1017.51 1017.39 1017.31 1017.23 1017.15 1017.07 1016.95 1016.83 1016.75 1016.63 1016.51 1016.39 1016.23 1016.11 1015.95 1015.79 1015.59 1015.43 1015.35 1015.23 1015.03 1014.87 1014.67 1014.55 1014.43 1014.27 1014.11 1013.95 1013.83 1013.67 1013.51 1013.35 1013.19 1013.07 1012.95 1012.83 1012.75 1012.67 1012.59 1012.55 1012.43 1012.31 1012.23 1012.15 1012.07 1011.95 1011.83 1011.63 1011.47 1011.27 1011.11 1010.87
1017.87 1017.95 1018.03 1018.11 1018.11 1018.11 1018.11 1018.07 1018.07 1018.03 1017.99 1017.95 1017.87 1017.79 1017.71 1017.63 1017.51 1017.43 1017.35 1017.23 1017.23 1017.15 1017.03 1016.95 1016.83 1016.67 1016.55 1016.43 1016.27 1016.11 1015.95 1015.83 1015.67 1015.51 1015.39 1015.23 1015.11 1014.95 1014.79 1014.55 1014.39 1014.31 1014.19 1014.03 1013.83 1013.67 1013.51 1013.39 1013.23 1013.11 1012.95 1012.83 1012.71 1012.63 1012.55 1012.47 1012.39 1012.31 1012.23 1012.11 1011.99 1011.91 1011.79 1011.67 1011.47 1011.27 1011.07 1010.87 1010.67
1017.87 1017.95 1017.99 1018.07 1018.07 1018.07 1018.07 1018.07 1018.03 1017.95 1017.95 1017.91 1017.83 1017.71 1017.63 1017.55 1017.51 1017.39 1017.31 1017.23 1017.19 1017.11 1017.03 1016.91 1016.75 1016.63 1016.47 1016.31 1016.15 1015.99 1015.83 1015.71 1015.59 1015.47 1015.31 1015.15 1014.99 1014.87 1014.67 1014.51 1014.31 1014.19 1014.07 1013.91 1013.71 1013.55 1013.39 1013.27 1013.11 1012.95 1012.83 1012.71 1012.63 1012.55 1012.43 1012.39 1012.27 1012.23 1012.11 1011.99 1011.87 1011.71 1011.59 1011.47 1011.35 1011.11 1010.83 1010.63 1010.39
1017.83 1017.91 1017.95 1018.03 1018.03 1018.03 1018.03 1018.03 1017.95 1017.95 1017.87 1017.83 1017.79 1017.71 1017.63 1017.51 1017.43 1017.35 1017.23 1017.19 1017.11 1017.07 1016.95 1016.83 1016.71 1016.55 1016.39 1016.23 1016.07 1015.91 1015.75 1015.63 1015.51 1015.39 1015.23 1015.07 1014.91 1014.75 1014.55 1014.43 1014.23 1014.11 1013.99 1013.83 1013.67 1013.47 1013.31 1013.15 1013.03 1012.83 1012.71 1012.63 1012.55 1012.47 1012.39 1012.31 1012.23 1012.11 1012.03 1011.95 1011.79 1011.59 1011.39 1011.23 1011.11 1010.95 1010.67 1010.39 1010.15
1017.83 1017.91 1017.95 1017.99 1017.99 1017.99 1017.99 1017.95 1017.91 1017.83 1017.79 1017.75 1017.71 1017.67 1017.55 1017.39 1017.39 1017.27 1017.23 1017.15 1017.07 1016.99 1016.87 1016.75 1016.63 1016.47 1016.31 1016.11 1015.99 1015.83 1015.67 1015.51 1015.35 1015.23 1015.11 1014.95 1014.83 1014.67 1014.55 1014.39 1014.23 1014.03 1013.91 1013.79 1013.59 1013.39 1013.19 1013.03 1012.87 1012.75 1012.63 1012.55 1012.47 1012.39 1012.35 1012.31 1012.15 1012.03 1011.95 1011.83 1011.71 1011.51 1011.31 1011.07 1010.87 1010.67 1010.47 1010.19 1010.07
Thickness
5607 5605 5603 5601 5599 5597 5596 5595 5594 5592 5591 5589 5588 5586 5585 5584 5582 5581 5579 5578 5576 5575 5573 5572 5570 5568 5567 5565 5564 5563 5561 5560 5559 5557 5555 5553 5552 5550 5548 5546 5545 5542 5540 5538 5536 5534 5532 5529 5527 5525 5523 5520 5518 5516 5514 5513 5511 5508 5506 5504 5502 5500 5498 5495 5493 5491 5488 5486 5484
5603 5601 5599 5598 5596 5595 5593 5591 5590 5589 5588 5586 5585 5583 5582 5580 5579 5577 5576 5574 5573 5571 5570 5568 5566 5565 5563 5562 5561 5559 5557 5556 5555 5553 5551 5549 5548 5546 5544 5542 5540 5538 5536 5534 5531 5529 5527 5525 5522 5520 5518 5517 5514 5512 5510 5508 5506 5504 5501 5499 5497 5495 5492 5490 5487 5485 5483 5481 5479
5599 5598 5597 5595 5593 5592 5590 5588 5587 5585 5584 5583 5582 5580 5579 5577 5576 5574 5572 5571 5570 5568 5566 5565 5563 5561 5560 5558 5557 5555 5553 5552 5550 5548 5547 5545 5543 5542 5540 5538 5535 5534 5531 5530 5527 5525 5522 5520 5518 5516 5514 5512 5509 5507 5505 5503 5501 5499 5496 5494 5492 5489 5487 5485 5482 5480 5478 5476 5474
5596 5595 5593 5591 5590 5588 5587 5585 5584 5583 5581 5580 5579 5577 5576 5574 5572 5571 5570 5568 5566 5565 5563 5560 5559 5557 5556 5554 5553 5551 5550 5548 5546 5545 5542 5541 5539 5537 5535 5533 5531 5529 5527 5525 5523 5520 5518 5516 5513 5511 5509 5507 5504 5502 5500 5498 5496 5493 5492 5489 5486 5484 5481 5479 5477 5475 5473 5471 5468
5592 5591 5590 5588 5587 5585 5584 5582 5582 5580 5578 5577 5575 5574 5572 5571 5569 5568 5566 5565 5563 5561 5559 5557 5555 5554 5552 5550 5549 5547 5546 5544 5542 5540 5538 5536 5534 5533 5531 5529 5527 5525 5522 5520 5518 5516 5514 5511 5508 5506 5504 5502 5499 5497 5495 5493 5491 5488 5486 5484 5481 5478 5476 5474 5472 5469 5467 5465 5463
5589 5587 5586 5584 5583 5582 5581 5579 5578 5577 5575 5574 5573 5571 5569 5567 5566 5564 5563 5561 5559 5558 5556 5554 5552 5550 5549 5547 5545 5543 5542 5540 5538 5536 5534 5532 5530 5528 5526 5524 5522 5520 5517 5515 5513 5511 5509 5506 5504 5501 5500 5497 5495 5493 5490 5488 5486 5483 5481 5478 5475 5473 5470 5468 5466 5464 5462 5460 5458
5586 5584 5582 5582 5580 5579 5578 5577 5575 5574 5573 5571 5569 5567 5565 5563 5562 5560 5559 5557 5556 5554 5552 5550 5549 5547 5545 5543 5541 5539 5537 5535 5534 5531 5530 5527 5526 5524 5522 5520 5518 5515 5513 5511 5509 5506 5504 5502 5499 5497 5494 5492 5490 5488 5485 5482 5480 5478 5476 5474 5471 5468 5466 5464 5460 5458 5457 5455 5453
5583 5581 5580 5578 5577 5576 5575 5574 5572 5571 5569 5567 5566 5564 5562 5560 5559 5557 5556 5554 5552 5550 5549 5547 5545 5543 5541 5539 5537 5535 5533 5531 5529 5527 5525 5523 5521 5519 5517 5515 5513 5511 5509 5506 5505 5502 5499 5497 5495 5492 5490 5488 5485 5483 5480 5478 5475 5473 5470 5469 5467 5464 5461 5459 5456 5454 5451 5450 5448
5580 5578 5577 5576 5575 5573 5572 5571 5569 5568 5566 5564 5562 5561 5559 5557 5556 5553 5551 5550 5548 5546 5545 5543 5541 5539 5537 5535 5533 5531 5529 5527 5525 5523 5521 5519 5517 5515 5513 5511 5509 5506 5504 5502 5500 5497 5495 5493 5490 5488 5485 5483 5480 5478 5476 5473 5471 5469 5466 5464 5462 5460 5457 5454 5452 5449 5446 5445 5443
5577 5575 5574 5573 5572 5571 5569 5568 5567 5565 5562 5561 5559 5558 5556 5554 5552 5550 5548 5546 5545 5543 5541 5539 5537 5535 5533 5531 5529 5527 5524 5523 5520 5519 5516 5514 5512 5510 5508 5506 5504 5502 5500 5498 5495 5493 5490 5488 5486 5483 5481 5479 5476 5474 5471 5469 5467 5465 5462 5460 5458 5456 5453 5450 5447 5445 5443 5440 5438
5574 5573 5572 5570 5569 5568 5567 5565 5564 5561 5560 5558 5555 5554 5552 5551 5548 5547 5544 5543 5541 5539 5537 5535 5533 5531 5529 5526 5525 5522 5520 5518 5516 5514 5512 5510 5508 5506 5504 5502 5500 5498 5495 5493 5491 5488 5486 5483 5481 5479 5476 5474 5472 5470 5467 5465 5463 5460 5458 5456 5453 5451 5449 5446 5443 5440 5438 5435 5434
5571 5570 5569 5568 5566 5566 5564 5562 5560 5558 5557 5554 5552 5550 5548 5547 5545 5543 5541 5539 5536 5535 5532 5531 5529 5527 5525 5522 5520 5518 5516 5514 5512 5511 5508 5506 5504 5502 5500 5498 5495 5493 5491 5488 5486 5483 5481 5479 5477 5475 5473 5470 5468 5465 5463 5461 5459 5456 5454 5452 5449 5446 5444 5442 5439 5435 5432 5430 5428
5569 5567 5566 5565 5564 5562 5560 5559 5557 5555 5553 5551 5549 5546 5545 5543 5541 5539 5537 5534 5532 5530 5529 5527 5525 5522 5520 5518 5516 5514 5512 5510 5508 5506 5504 5502 5500 5498 5495 5493 5491 5489 5486 5484 5482 5479 5477 5474 5472 5470 5469 5466 5464 5462 5459 5457 5455 5452 5450 5448 5445 5441 5439 5436 5434 5430 5427 5424 5422
5566 5565 5563 5562 5561 5559 5557 5556 5553 5551 5549 5547 5545 5543 5541 5539 5537 5535 5533 5530 5528 5526 5524 5522 5520 5518 5516 5514 5512 5510 5508 5506 5504 5502 5500 5498 5495 5493 5490 5489 5486 5484 5482 5479 5477 5475 5472 5470 5468 5466 5464 5463 5460 5458 5455 5452 5450 5448 5445 5442 5440 5437 5434 5431 5428 5424 5422 5419 5416
5564 5562 5560 5559 5557 5556 5554 5552 5550 5548 5546 5543 5541 5539 5537 5535 5533 5531 5529 5526 5524 5522 5520 5518 5516 5514 5512 5510 5508 5506 5504 5502 5500 5497 5495 5493 5491 5489 5486 5484 5482 5480 5477 5476 5472 5470 5468 5466 5464 5462 5460 5458 5456 5454 5451 5449 5446 5443 5440 5437 5434 5431 5428 5425 5421 5418 5415 5412 5410
5560 5559 5557 5555 5554 5552 5551 5548 5546 5544 5542 5540 5538 5535 5533 5531 5529 5527 5524 5522 5520 5518 5516 5513 5512 5510 5507 5506 5504 5502 5500 5497 5496 5493 5491 5488 5487 5484 5482 5480 5478 5476 5473 5471 5469 5467 5464 5462 5460 5458 5456 5454 5452 5450 5447 5445 5441 5439 5435 5431 5428 5424 5421 5418 5415 5412 5408 5406 5403
5558 5556 5554 5552 5551 5549 5547 5545 5543 5540 5538 5536 5533 5531 5529 5527 5525 5523 5521 5518 5516 5514 5512 5509 5508 5506 5503 5502 5500 5498 5496 5493 5491 5489 5486 5484 5482 5480 5478 5476 5473 5471 5470 5467 5465 5463 5461 5458 5456 5454 5452 5450 5448 5446 5443 5440 5437 5433 5430 5426 5422 5419 5415 5412 5408 5405 5402 5399 5396
5554 5552 5550 5548 5547 5545 5543 5541 5539 5537 5534 5532 5530 5527 5525 5523 5521 5519 5517 5514 5512 5510 5508 5505 5503 5501 5500 5498 5495 5493 5491 5489 5486 5484 5482 5480 5478 5476 5474 5472 5470 5468 5465 5463 5461 5459 5457 5455 5453 5450 5448 5446 5444 5441 5438 5435 5432 5428 5424 5421 5417 5413 5409 5405 5402 5398 5395 5392 5389
5551 5549 5546 5545 5543 5541 5539 5537 5535 5533 5530 5528 5526 5524 5522 5519 5517 5515 5512 5510 5508 5506 5504 5501 5499 5497 5496 5494 5491 5489 5487 5485 5483 5481 5478 5476 5474 5472 5470 5468 5466 5463 5462 5459 5457 5455 5453 5451 5449 5447 5444 5442 5440 5436 5434 5430 5427 5423 5420 5416 5412 5408 5404 5400 5396 5392 5388 5385 5382
5547 5545 5543 5541 5539 5537 5535 5534 5532 5529 5527 5525 5522 5520 5517 5515 5513 5511 5508 5506 5504 5502 5500 5498 5496 5493 5491 5489 5487 5485 5483 5481 5479 5476 5474 5473 5470 5468 5466 5464 5462 5460 5457 5455 5453 5451 5449 5447 5444 5442 5440 5437 5435 5432 5429 5426 5422 5418 5415 5411 5407 5403 5398 5394 5390 5385 5382 5378 5375
5543 5541 5539 5537 5536 5534 5532 5530 5528 5526 5523 5521 5518 5516 5513 5511 5509 5507 5504 5502 5501 5498 5496 5494 5492 5489 5488 5485 5483 5481 5479 5477 5475 5473 5470 5469 5467 5464 5462 5461 5458 5455 5453 5451 5449 5447 5444 5442 5440 5437 5435 5433 5430 5427 5425 5421 5418 5414 5410 5406 5402 5397 5393 5388 5384 5379 5375 5371 5368
5540 5538 5536 5534 5532 5530 5529 5527 5525 5522 5519 5517 5514 5512 5509 5507 5505 5503 5501 5499 5497 5494 5492 5490 5488 5486 5484 5481 5480 5477 5475 5473 5471 5469 5467 5465 5463 5461 5459 5456 5454 5451 5449 5447 5444 5442 5440 5438 5435 5433 5431 5429 5426 5423 5420 5417 5413 5409 5406 5401 5396 5392 5387 5382 5378 5373 5369 5365 5361
5536 5534 5532 5531 5529 5528 5526 5523 5521 5518 5516 5513 5510 5508 5505 5503 5502 5499 5497 5495 5493 5491 5488 5486 5484 5482 5479 5478 5475 5474 5472 5470 5467 5466 5464 5461 5459 5457 5454 5452 5450 5447 5445 5442 5440 5437 5435 5433 5431 5429 5426 5424 5422 5418 5415 5411 5407 5403 5399 5395 5391 5386 5381 5376 5372 5367 5363 5359 5355
5533 5531 5530 5528 5526 5524 5522 5520 5517 5514 5511 5509 5506 5504 5501 5499 5497 5495 5493 5491 5489 5487 5485 5482 5480 5478 5476 5474 5472 5470 5468 5467 5464 5462 5460 5457 5455 5453 5450 5448 5446 5443 5441 5438 5435 5433 5430 5428 5426 5424 5422 5419 5417 5413 5410 5405 5401 5397 5392 5388 5384 5379 5375 5370 5365 5361 5357 5354 5350
5530 5529 5527 5525 5523 5520 5518 5515 5512 5510 5507 5505 5502 5500 5498 5496 5494 5492 5489 5487 5485 5483 5480 5479 5477 5474 5473 5470 5469 5466 5464 5462 5460 5459 5456 5454 5452 5449 5447 5444 5442 5439 5437 5434 5431 5429 5427 5424 5421 5419 5416 5414 5410 5407 5403 5399 5394 5390 5385 5381 5376 5372 5369 5365 5360 5355 5351 5348 5345
5527 5526 5524 5522 5519 5517 5514 5511 5508 5506 5503 5501 5499 5496 5494 5492 5490 5488 5486 5483 5481 5479 5477 5475 5473 5471 5469 5467 5465 5463 5461 5458 5456 5454 5452 5450 5448 5446 5443 5441 5438 5435 5432 5430 5428 5425 5422 5419 5416 5413 5410 5406 5404 5401 5397 5392 5388 5383 5378 5373 5369 5365 5361 5358 5354 5350 5346 5342 5339
5524 5522 5521 5519 5515 5513 5510 5508 5505 5502 5499 5497 5495 5493 5491 5489 5486 5484 5482 5480 5477 5475 5473 5471 5469 5467 5466 5463 5461 5459 5457 5455 5452 5451 5448 5446 5444 5442 5439 5436 5434 5431 5428 5426 5423 5420 5418 5414 5411 5407 5404 5400 5397 5394 5390 5386 5382 5377 5371 5366 5362 5358 5354 5350 5347 5344 5341 5337 5334
5521 5519 5517 5515 5512 5509 5507 5504 5501 5499 5496 5493 5491 5489 5487 5485 5483 5480 5478 5476 5473 5472 5469 5467 5465 5464 5462 5460 5457 5455 5453 5451 5449 5447 5445 5442 5440 5437 5435 5432 5430 5426 5424 5421 5419 5415 5412 5409 5406 5402 5398 5395 5391 5387 5384 5379 5375 5370 5365 5360 5356 5351 5347 5343 5340 5337 5335 5332 5330
5518 5516 5514 5511 5508 5505 5503 5500 5497 5494 5492 5490 5488 5486 5483 5481 5479 5477 5474 5472 5470 5468 5466 5464 5462 5460 5458 5456 5454 5452 5450 5447 5446 5444 5441 5439 5436 5434 5431 5428 5425 5422 5419 5416 5413 5410 5407 5404 5401 5398 5393 5389 5385 5381 5377 5372 5368 5364 5359 5354 5349 5344 5340 5337 5333 5331 5328 5326 5324
5515 5512 5510 5507 5504 5502 5499 5496 5494 5491 5489 5486 5484 5482 5480 5477 5474 5473 5470 5468 5466 5464 5462 5460 5459 5456 5454 5452 5450 5448 5446 5444 5441 5439 5437 5435 5432 5430 5426 5424 5420 5417 5414 5412 5409 5406 5402 5399 5396 5392 5388 5384 5379 5375 5370 5365 5361 5357 5352 5347 5342 5338 5334 5330 5327 5325 5322 5320 5318
5511 5509 5506 5503 5500 5498 5495 5492 5490 5487 5485 5483 5481 5478 5476 5474 5471 5469 5467 5465 5463 5461 5459 5458 5455 5453 5451 5449 5447 5445 5443 5440 5438 5436 5433 5430 5429 5426 5422 5419 5416 5412 5409 5407 5404 5401 5398 5394 5391 5387 5383 5379 5374 5369 5364 5359 5355 5350 5345 5341 5336 5332 5328 5325 5322 5319 5317 5314 5312
5508 5505 5502 5499 5497 5494 5491 5489 5486 5484 5482 5479 5477 5474 5472 5469 5467 5465 5463 5461 5460 5458 5456 5454 5452 5450 5448 5446 5444 5441 5439 5437 5434 5431 5429 5426 5424 5421 5418 5414 5411 5408 5405 5402 5399 5396 5393 5389 5385 5381 5377 5373 5369 5363 5359 5354 5349 5345 5340 5335 5331 5327 5324 5320 5317 5314 5311 5309 5307
5503 5501 5498 5495 5493 5490 5487 5485 5483 5480 5478 5476 5473 5471 5468 5466 5464 5462 5460 5458 5456 5454 5453 5450 5448 5446 5444 5443 5440 5438 5435 5433 5431 5428 5425 5422 5419 5416 5414 5410 5406 5403 5400 5397 5394 5390 5387 5384 5380 5376 5372 5368 5363 5358 5353 5349 5344 5339 5334 5331 5327 5322 5319 5316 5312 5310 5307 5305 5303
5499 5497 5494 5491 5488 5486 5484 5481 5479 5477 5474 5472 5469 5467 5465 5463 5461 5458 5457 5455 5453 5451 5449 5447 5445 5443 5441 5438 5436 5434 5431 5429 5427 5424 5421 5418 5415 5412 5409 5406 5402 5399 5396 5392 5389 5385 5381 5378 5374 5370 5366 5362 5357 5353 5348 5344 5339 5335 5330 5326 5323 5318 5315 5311 5308 5306 5304 5302 5300
5495 5493 5490 5487 5485 5482 5480 5477 5475 5473 5470 5468 5466 5463 5461 5459 5457 5455 5454 5452 5450 5448 5446 5444 5442 5440 5437 5435 5432 5430 5428 5425 5422 5420 5417 5414 5412 5408 5405 5402 5398 5394 5390 5387 5384 5380 5377 5373 5368 5364 5360 5356 5352 5347 5343 5339 5335 5330 5326 5322 5318 5314 5311 5308 5305 5303 5300 5299 5297
5492 5489 5486 5483 5481 5479 5476 5474 5471 5469 5467 5464 5462 5460 5458 5456 5454 5452 5451 5449 5447 5445 5443 5441 5438 5436 5433 5431 5428 5426 5423 5421 5418 5416 5412 5410 5407 5405 5401 5397 5394 5390 5387 5383 5379 5375 5371 5367 5363 5359 5355 5351 5346 5342 5338 5334 5330 5326 5322 5319 5314 5311 5308 5306 5303 5300 5298 5296 5294
5488 5486 5482 5480 5477 5475 5473 5470 5468 5465 5463 5461 5459 5457 5455 5453 5451 5449 5447 5446 5444 5442 5440 5437 5435 5432 5430 5427 5425 5422 5419 5416 5414 5411 5408 5405 5402 5400 5397 5394 5390 5386 5382 5378 5374 5370 5366 5361 5358 5353 5349 5345 5340 5337 5333 5329 5325 5321 5318 5314 5311 5308 5305 5302 5300 5298 5296 5293 5291
5484 5482 5479 5476 5474 5471 5469 5467 5464 5462 5459 5457 5456 5454 5452 5450 5448 5447 5444 5443 5440 5438 5436 5433 5431 5428 5426 5424 5421 5418 5416 5412 5409 5406 5404 5400 5397 5395 5392 5389 5385 5381 5377 5373 5370 5365 5360 5356 5352 5347 5343 5339 5335 5332 5328 5324 5320 5316 5313 5310 5308 5305 5301 5299 5297 5296 5294 5291 5290
5481 5479 5476 5473 5470 5468 5465 5463 5461 5458 5456 5454 5452 5451 5449 5447 5445 5443 5441 5439 5437 5434 5432 5430 5427 5425 5422 5420 5418 5415 5412 5409 5405 5402 5399 5395 5392 5389 5387 5384 5380 5377 5372 5368 5365 5360 5355 5350 5347 5342 5338 5334 5329 5326 5322 5319 5315 5312 5309 5306 5304 5302 5299 5296 5294 5293 5291 5289 5287
5478 5475 5472 5470 5467 5465 5462 5460 5458 5455 5454 5451 5450 5448 5446 5444 5442 5440 5438 5436 5433 5430 5428 5426 5423 5421 5418 5416 5413 5411 5409 5405 5401 5397 5395 5391 5388 5385 5381 5378 5375 5370 5366 5363 5359 5355 5350 5345 5340 5337 5332 5328 5323 5320 5316 5313 5310 5307 5303 5301 5299 5298 5296 5294 5291 5290 5288 5288 5285
5474 5471 5469 5466 5463 5461 5459 5456 5454 5452 5450 5449 5447 5445 5443 5441 5439 5437 5435 5432 5429 5427 5425 5422 5419 5416 5414 5411 5409 5407 5404 5401 5397 5394 5390 5387 5383 5380 5376 5373 5370 5366 5361 5357 5353 5350 5345 5340 5335 5331 5327 5322 5318 5314 5310 5307 5304 5302 5299 5297 5295 5294 5293 5291 5289 5287 5286 5285 5283